User: anonymous   Login
Location: Stoke Bliss
(52.2667°N, 2.5167°W)
Time: 23:51:34
(UTC+00:00)
Language:

Cosmos 1503 Rocket - Orbit

View from above orbital plane
View from above orbital plane
View from above satellite
View from above satellite

Ground track
Ground track

The orbit data is extracted from the following two-line orbital elements,

1 14402U 83103B   21138.47652030  .00000007  00000-0  11432-4 0  9990
2 14402  74.0438 147.6865 0027027 353.9147   6.1673 14.36014129967484
Epoch (UTC): 18 May 2021 11:26:11
Eccentricity: 0.0027027
inclination: 74.0438°
perigee height: 752 km
apogee height: 791 km
right ascension of ascending node: 147.6865°
argument of perigee: 353.9147°
revolutions per day: 14.36014129
mean anomaly at epoch: 6.1673°
orbit number at epoch: 96748

The dashed part of the orbit path shows where the satellite is in the earth's shadow,  

DLR